COSMOS 418

Satellite information

Favourite Embed

Satellite Type and Status

PAYLOADIN ORBIT

Key statistics

Satellite COSMOS 418 at a glance.

Uptime

19726

Days in orbit

Revolutions

≈ 12.5

Per day

Orbit

LEO

Low Earth Orbit

Inclination

74.0

Latest

Satellite identification and parameters

Extended collection of information and parameters for COSMOS 418.

Object identification

Identified? True

Debris? False

Object name: COSMOS 418

International designator: 1971-041H

Object number (NORAD): 5217

Object ID (CCSDS): 5217

Country: COMMONWEALTH OF INDEPENDENT STATES (CIS)

Current information (Y/N): Y

RCS size: MEDIUM

Orbital parameters

Period: 114.78 minutes

Inclination: 74.014 deg

SMA: 7823.558 km

Apoapsis: 1492.205 km

Periapsis: 1398.641 km

RAAN: 275.4531 deg

Eccentricy: 0.0059796

Argument of periapsis: 132.5476 deg

Mean anomaly: 42.2157 deg

Mean motion: 12.54574064 rev/day

Mean motion (dot): -0.00000004 rev/day2

B* drag term: 0.00007554 1/REarth

Two-line elements (TLE)

Creation date: May 8, 2025, 3:01 a.m.

Reference frame: TEME

Reference center: EARTH

Epoch: May 7, 2025, 9:57 p.m. UTC

TLE line 0: 0 COSMOS 418

TLE line 1: 1 05217U 71041H 25127.91472687 -.00000004 00000-0 75540-4 0 9999

TLE line 2: 2 05217 74.0140 275.4531 0059796 132.5476 42.2157 12.54574064473119

Live tracking on map

Real-time ground track for satellite COSMOS 418.

In-orbit conjunctions

There are no conjunctions computed for COSMOS 418, at the moment. Check back to stay up to date, as we update our databases every day.

Go to all conjunctions

Associated space launch

Military communications satellites

COSMOS 418 was lifted into orbit during the mission ‘Kosmos-3M | Strela-1M 9-16’, on board a Kosmos-3M space rocket.

The launch took place on May 7, 1971, 2:20 p.m. from 132/1 (132L).

For more information about the launch, click the button.

Launch to space Kosmos-3M | Strela-1M 9-16
Kosmos-3M | Strela-1M 9-16

Agency: N/A

Status: Launch Successful

Launch date: May 7, 1971, 2:20 p.m. UTC

Rocket: Kosmos-3M

Launch pad: 132/1 (132L)

Location: Plesetsk Cosmodrome, Russian Federation

...

Latest news about this satellite

There are no fresh news available about this satellite. Check back as we update our databases every day.


Newsletter sign-up

Weekly statistics, charts and insights to help you stay on top of the space industry.